ORBCOMM FM07 [+]

Last updated on Sat May 13 2023 01:03:01 GMT+0100 (British Summer Time)

1 25119U 97084H 23132.11160882 .00002390 00000+0 78362-3 0 9996 2 25119 45.0150 74.7781 0005087 316.1532 43.8913 14.40800097330715
UTC large
Height (km)
Speed (km/s)
/
Latitude / Longitude
Inclination (degrees)
Orbital Period (minutes)
Azimuth
Elevation
Range (km)
Doppler Factor

Next 0 passes for location: London (51.5072 / 0.1276)

Sorry there are no passes over London.